User: anonymous   Login
Location: Beaurevoir
(49.9971°N, 3.3085°E)
Time: 16:38:02
(UTC+00:00)
Language:

CRYOSAT 2 - Orbit

View from above orbital plane
View from above orbital plane
View from above satellite
View from above satellite

Ground track
Ground track

The orbit data is extracted from the following two-line orbital elements,

1 36508U 10013A   24199.95710987  .00000437  00000-0  10782-3 0  9993
2 36508  92.0335 108.5015 0003542 135.6026 224.5466 14.51904458756629
Epoch (UTC): 17 July 2024 22:58:14
Eccentricity: 0.0003542
inclination: 92.0335°
perigee height: 717 km
apogee height: 722 km
right ascension of ascending node: 108.5015°
argument of perigee: 135.6026°
revolutions per day: 14.51904458
mean anomaly at epoch: 224.5466°
orbit number at epoch: 75662

The dashed part of the orbit path shows where the satellite is in the earth's shadow,  

DLR